W8UFO-13 Weather Reports


Display with metric or nautical units.
time (UTC)temp
F
wind
direction
speed
MPH
gust
MPH
rain 1hr
in
rain 24hr
in
rain mn
in
humidity
%
barometer
mb
20260506211417 68 203 1.0 3.0 0.02 0.79 0.79 94 1013.0
20260506210917 68 180 1.0 2.0 0.03 0.79 0.79 93 1013.0
20260506210417 68 0.0 2.0 0.03 0.79 0.79 94 1012.8
20260506205917 68 225 1.0 1.0 0.03 0.79 0.79 94 1012.3
20260506205417 68 225 1.0 2.0 0.03 0.79 0.79 94 1012.6
20260506204917 68 248 1.0 2.0 0.03 0.79 0.79 93 1012.1
20260506204417 68 0.0 1.0 0.02 0.78 0.78 93 1012.3
20260506203917 68 225 1.0 2.0 0.02 0.78 0.78 93 1012.9
20260506203417 68 0.0 1.0 0.01 0.77 0.77 93 1012.4
20260506202917 68 180 1.0 5.0 0.01 0.77 0.77 92 1012.6
20260506202417 68 0.0 1.0 0.01 0.77 0.77 92 1012.7
20260506201917 69 0.0 1.0 0.01 0.77 0.77 91 1013.0
20260506201417 69 248 1.0 3.0 0.01 0.77 0.77 91 1013.5
20260506200917 69 0.0 1.0 0.00 0.76 0.76 91 1013.8
20260506200417 69 0.0 1.0 0.00 0.76 0.76 91 1013.8
20260506195917 69 0.0 1.0 0.00 0.76 0.76 91 1014.0
20260506195417 69 203 1.0 3.0 0.00 0.76 0.76 90 1014.0
20260506194917 69 180 3.0 7.0 0.00 0.76 0.76 90 1013.9
20260506194417 69 225 4.0 8.0 0.00 0.76 0.76 91 1014.4
20260506193917 69 248 1.0 3.0 0.00 0.76 0.76 91 1014.4
20260506193417 69 248 1.0 3.0 0.00 0.76 0.76 91 1014.3
20260506192917 69 203 1.0 3.0 0.00 0.76 0.76 90 1014.3
20260506192417 69 248 1.0 3.0 0.00 0.76 0.76 90 1014.0
20260506191917 69 248 1.0 3.0 0.00 0.76 0.76 90 1013.6
20260506191417 69 0.0 4.0 0.00 0.76 0.76 90 1013.0
20260506190917 69 270 2.0 4.0 0.00 0.76 0.76 89 1013.1
20260506190417 69 180 1.0 2.0 0.00 0.76 0.76 89 1013.8
20260506185917 69 225 1.0 4.0 0.00 0.76 0.76 88 1014.2
20260506185417 69 225 3.0 4.0 0.00 0.76 0.76 87 1014.4
20260506184917 70 180 3.0 8.0 0.00 0.76 0.76 87 1014.3
20260506184417 70 0.0 1.0 0.00 0.76 0.76 87 1014.5
20260506183917 70 135 2.0 6.0 0.00 0.76 0.76 87 1014.5
20260506183417 70 0.0 1.0 0.00 0.76 0.76 87 1014.1
20260506182917 70 158 1.0 2.0 0.00 0.76 0.76 87 1014.4
20260506182417 70 180 2.0 4.0 0.00 0.76 0.76 87 1014.6
20260506181917 70 248 1.0 2.0 0.00 0.76 0.76 86 1014.5
20260506181417 71 225 1.0 3.0 0.00 0.76 0.76 86 1014.6
20260506180917 71 248 3.0 5.0 0.00 0.76 0.76 86 1014.5
20260506180417 71 270 1.0 2.0 0.00 0.76 0.76 85 1014.0
20260506175917 71 203 1.0 3.0 0.00 0.76 0.76 85 1014.1
20260506175417 71 225 1.0 2.0 0.00 0.76 0.76 85 1014.3
20260506174917 72 248 1.0 2.0 0.00 0.76 0.76 84 1014.2
20260506174417 72 225 3.0 6.0 0.00 0.76 0.76 84 1014.4
20260506173917 71 225 1.0 4.0 0.00 0.76 0.76 85 1014.2
20260506173417 71 225 4.0 12.0 0.00 0.76 0.76 84 1014.0
20260506172917 71 248 3.0 6.0 0.00 0.76 0.76 86 1013.7
20260506172417 71 203 4.0 7.0 0.00 0.76 0.76 85 1013.6
20260506171917 71 180 2.0 4.0 0.00 0.76 0.76 86 1013.8
20260506171417 71 248 2.0 4.0 0.00 0.76 0.76 86 1013.7
20260506170917 71 203 2.0 6.0 0.00 0.76 0.76 88 1013.8
20260506170417 70 180 3.0 8.0 0.00 0.76 0.76 88 1013.8
20260506165917 70 225 4.0 6.0 0.00 0.76 0.76 88 1013.7
20260506165417 70 248 2.0 3.0 0.00 0.76 0.76 90 1013.9
20260506164917 70 225 3.0 4.0 0.00 0.76 0.76 91 1013.8
20260506164417 69 293 3.0 6.0 0.00 0.76 0.76 93 1013.8
20260506163917 68 180 1.0 2.0 0.00 0.76 0.76 93 1013.5
20260506163417 68 270 2.0 4.0 0.00 0.76 0.76 93 1013.6
20260506162917 68 225 1.0 4.0 0.00 0.76 0.76 93 1013.7
20260506162417 67 225 2.0 3.0 0.00 0.76 0.76 94 1013.7
20260506161917 67 270 1.0 2.0 0.00 0.76 0.76 95 1013.8
20260506161417 66 248 3.0 5.0 0.00 0.76 0.76 94 1013.7
20260506160917 66 225 1.0 3.0 0.01 0.76 0.76 95 1013.8
20260506160417 66 248 1.0 3.0 0.01 0.76 0.76 95 1013.7
20260506155917 66 0.0 1.0 0.02 0.76 0.76 96 1013.7
20260506155417 65 0.0 1.0 0.04 0.76 0.76 96 1013.6
20260506154917 65 248 1.0 1.0 0.05 0.76 0.76 96 1013.9
20260506154417 64 203 1.0 2.0 0.06 0.76 0.76 96 1013.9
20260506153917 64 180 1.0 4.0 0.07 0.76 0.76 96 1014.1
20260506153417 64 315 1.0 2.0 0.08 0.76 0.76 95 1014.0
20260506152917 64 23 2.0 5.0 0.10 0.76 0.76 96 1014.0
20260506152417 64 0.0 2.0 0.13 0.76 0.76 96 1014.3
20260506151917 64 248 1.0 3.0 0.14 0.76 0.76 96 1014.6
20260506151417 64 0.0 3.0 0.16 0.76 0.76 96 1014.3
20260506150917 64 248 1.0 3.0 0.17 0.75 0.75 96 1014.5
20260506150417 64 293 2.0 4.0 0.19 0.75 0.75 96 1014.7
20260506145917 64 0 1.0 3.0 0.20 0.74 0.74 96 1014.6
20260506145417 64 248 1.0 3.0 0.18 0.72 0.72 96 1014.7
20260506144917 64 158 1.0 2.0 0.18 0.71 0.71 96 1014.7
20260506144416 64 113 1.0 5.0 0.19 0.70 0.70 96 1014.9
20260506143917 64 315 1.0 2.0 0.20 0.69 0.69 96 1015.0
20260506143417 64 180 1.0 1.0 0.20 0.68 0.68 96 1014.8
20260506142917 64 0.0 1.0 0.19 0.66 0.66 96 1014.3
20260506142417 64 113 2.0 4.0 0.19 0.63 0.63 96 1013.6
20260506141917 64 90 1.0 2.0 0.20 0.62 0.62 95 1013.5
20260506141417 64 270 2.0 3.0 0.22 0.60 0.60 95 1014.0
20260506140917 64 203 1.0 3.0 0.21 0.58 0.58 95 1014.0
20260506140417 64 225 2.0 7.0 0.21 0.56 0.56 95 1013.9
20260506135917 64 180 1.0 2.0 0.22 0.54 0.54 95 1013.8
20260506135417 64 293 2.0 3.0 0.26 0.54 0.54 96 1013.6
20260506134917 63 225 3.0 8.0 0.26 0.53 0.53 96 1013.4
20260506134416 64 248 2.0 4.0 0.26 0.51 0.51 96 1013.5
20260506133917 63 248 2.0 5.0 0.28 0.49 0.49 95 1013.4
20260506133417 63 248 2.0 4.0 0.30 0.48 0.48 95 1013.3
20260506132916 63 0.0 1.0 0.31 0.47 0.47 95 1013.4
20260506132416 64 248 1.0 1.0 0.30 0.44 0.44 95 1013.8
20260506131916 63 338 1.0 2.0 0.29 0.42 0.42 95 1013.5
20260506131417 64 248 1.0 2.0 0.26 0.38 0.38 95 1013.5
20260506130917 64 248 2.0 4.0 0.26 0.37 0.37 95 1013.8
20260506130417 64 248 2.0 10.0 0.26 0.35 0.35 94 1013.7
20260506125916 64 90 1.0 1.0 0.23 0.32 0.32 94 1013.7
20260506125417 64 225 2.0 5.0 0.20 0.28 0.28 94 1014.1
20260506124917 64 270 2.0 3.0 0.21 0.27 0.27 94 1013.9
20260506124416 64 248 2.0 3.0 0.22 0.25 0.25 93 1013.7
20260506123916 64 0.0 1.0 0.19 0.21 0.21 93 1013.6
20260506123417 64 248 2.0 4.0 0.16 0.18 0.18 93 1013.4
20260506122917 64 248 1.0 2.0 0.15 0.16 0.16 93 1013.4
20260506122416 64 248 1.0 2.0 0.13 0.14 0.14 92 1013.4
20260506121917 65 248 1.0 3.0 0.12 0.13 0.13 91 1013.3
20260506121416 65 225 2.0 4.0 0.11 0.12 0.12 91 1013.5
20260506120916 65 248 3.0 6.0 0.10 0.11 0.11 91 1013.5
20260506120416 65 248 1.0 3.0 0.08 0.09 0.09 90 1013.5
20260506115916 65 248 1.0 3.0 0.09 0.09 0.09 89 1013.4
20260506115416 66 248 2.0 6.0 0.08 0.08 0.08 88 1013.2
20260506114916 66 293 2.0 3.0 0.06 0.06 0.06 87 1013.2
20260506114416 66 270 1.0 2.0 0.03 0.03 0.03 86 1013.1
20260506113916 67 0.0 1.0 0.02 0.02 0.02 85 1013.0
20260506113416 67 225 1.0 5.0 0.02 0.02 0.02 85 1012.8
20260506112917 67 0.0 1.0 0.01 0.01 0.01 85 1012.8
20260506112416 67 135 1.0 3.0 0.01 0.01 0.01 84 1012.6
20260506111916 67 225 2.0 5.0 0.01 0.01 0.01 84 1012.5
20260506111416 67 225 1.0 2.0 0.01 0.01 0.01 83 1012.4
20260506110916 67 248 1.0 3.0 0.01 0.01 0.01 82 1012.4
20260506110417 68 270 2.0 7.0 0.01 0.01 0.01 81 1012.5
20260506105916 68 113 1.0 2.0 0.00 0.00 0.00 80 1012.4
20260506105417 68 270 1.0 2.0 0.00 0.00 0.00 78 1012.4
20260506104917 69 248 3.0 5.0 0.00 0.00 0.00 76 1012.4
20260506104417 69 248 1.0 3.0 0.00 0.00 0.00 75 1012.3
20260506103916 69 248 3.0 4.0 0.00 0.00 0.00 73 1012.3
20260506103417 70 270 2.0 3.0 0.00 0.00 0.00 73 1012.4
20260506102916 70 225 1.0 2.0 0.00 0.00 0.00 71 1012.3
20260506102417 70 248 2.0 3.0 0.00 0.00 0.00 70 1012.0
20260506101916 70 293 1.0 4.0 0.00 0.00 0.00 70 1011.8
20260506101416 70 248 3.0 7.0 0.00 0.00 0.00 70 1011.9
20260506100916 70 225 1.0 3.0 0.00 0.00 0.00 69 1011.6
20260506100417 70 225 2.0 5.0 0.00 0.00 0.00 69 1011.5
20260506095916 70 248 1.0 2.0 0.00 0.00 0.00 69 1011.6
20260506095416 71 225 2.0 3.0 0.00 0.00 0.00 68 1011.6
20260506094916 71 248 2.0 8.0 0.00 0.00 0.00 68 1012.0
20260506094416 71 248 3.0 6.0 0.00 0.00 0.00 68 1011.8
20260506093916 71 248 4.0 6.0 0.00 0.00 0.00 67 1011.9
20260506093416 71 225 3.0 5.0 0.00 0.00 0.00 67 1011.9
20260506092917 71 203 1.0 4.0 0.00 0.00 0.00 67 1011.9
20260506092416 71 180 1.0 6.0 0.00 0.00 0.00 67 1011.9
20260506091916 71 248 1.0 2.0 0.00 0.00 0.00 67 1011.7
20260506091417 71 203 1.0 2.0 0.00 0.00 0.00 67 1011.7
20260506090916 71 0.0 2.0 0.00 0.00 0.00 67 1011.7
20260506090416 71 293 2.0 6.0 0.00 0.00 0.00 66 1011.8
20260506085917 71 270 3.0 6.0 0.00 0.00 0.00 66 1011.8
20260506085416 71 0.0 1.0 0.00 0.00 0.00 66 1011.7
20260506084916 71 248 2.0 4.0 0.00 0.00 0.00 65 1011.4
20260506084416 71 293 2.0 5.0 0.00 0.00 0.00 65 1011.5
20260506083916 72 293 3.0 8.0 0.00 0.00 0.00 65 1011.5
20260506083416 72 203 2.0 5.0 0.00 0.00 0.00 65 1011.5
20260506082916 72 293 1.0 2.0 0.00 0.00 0.00 64 1011.4
20260506082416 72 225 1.0 2.0 0.00 0.00 0.00 64 1011.3
20260506081916 71 203 1.0 2.0 0.00 0.00 0.00 64 1010.9
20260506081416 71 0.0 1.0 0.00 0.00 0.00 64 1011.1
20260506080916 72 0.0 2.0 0.00 0.00 0.00 63 1011.1
20260506080417 72 248 2.0 4.0 0.00 0.00 0.00 63 1011.1
20260506073416 71 315 1.0 2.0 0.00 0.00 0.00 62 1011.6
20260506072916 71 0.0 1.0 0.00 0.00 0.00 62 1011.5
20260506072416 71 248 1.0 2.0 0.00 0.00 0.00 62 1011.5
20260506071916 71 203 1.0 2.0 0.00 0.00 0.00 61 1011.5
20260506071416 71 248 2.0 4.0 0.00 0.00 0.00 61 1011.7
20260506070916 71 270 3.0 5.0 0.00 0.00 0.00 61 1011.6
20260506070416 71 225 2.0 3.0 0.00 0.00 0.00 61 1011.6
20260506062416 70 0 2.0 4.0 0.00 0.00 0.00 60 1011.9
20260506061916 69 0.0 1.0 0.00 0.00 0.00 60 1012.2
20260506061416 69 0.0 0.0 0.00 0.00 0.00 60 1012.1
20260506060916 69 0.0 0.0 0.00 0.00 0.00 60 1012.3
20260506060416 69 225 1.0 2.0 0.00 0.00 0.00 60 1012.6
20260506051416 71 248 1.0 2.0 0.00 0.00 0.00 54 1012.7
20260506050916 71 338 1.0 4.0 0.00 0.00 0.00 54 1013.0
20260506050416 71 0.0 1.0 0.00 0.00 0.00 54 1012.9
20260506044916 71 0.0 1.0 0.00 0.00 0.00 53 1012.8
20260506044416 71 0.0 2.0 0.00 0.00 0.00 54 1012.9
20260506043916 71 248 1.0 1.0 0.00 0.00 0.00 53 1012.8
20260506043416 71 293 1.0 2.0 0.00 0.00 0.00 53 1012.9
20260506042916 71 248 1.0 2.0 0.00 0.00 0.00 54 1013.0
20260506042416 71 270 1.0 7.0 0.00 0.00 0.00 53 1013.0
20260506041916 71 248 1.0 2.0 0.00 0.00 0.00 53 1013.0
20260506041416 71 225 1.0 3.0 0.00 0.00 0.00 54 1012.9
20260506040916 71 248 1.0 2.0 0.00 0.00 0.00 54 1012.8
20260506040416 71 0.0 0.0 0.00 0.00 0.00 54 1012.9
20260506035917 71 203 1.0 2.0 0.00 0.00 0.00 54 1012.8
20260506035415 71 0.0 2.0 0.00 0.00 0.00 54 1012.7
20260506034917 71 225 1.0 3.0 0.00 0.00 0.00 54 1012.9
20260506034418 71 248 2.0 4.0 0.00 0.00 0.00 53 1013.0
20260506033915 71 293 2.0 3.0 0.00 0.00 0.00 54 1013.1
20260506033417 70 0.0 1.0 0.00 0.00 0.00 54 1013.0
20260506032917 70 248 1.0 2.0 0.00 0.00 0.00 54 1012.9
20260506032417 70 225 1.0 1.0 0.00 0.00 0.00 54 1013.0
20260506031917 70 248 1.0 2.0 0.00 0.00 0.00 55 1012.9
20260506031417 70 315 1.0 3.0 0.00 0.00 0.00 54 1012.9
20260506030917 70 248 1.0 2.0 0.00 0.00 0.00 54 1012.9
20260506030417 70 225 2.0 4.0 0.00 0.00 0.00 54 1013.0
20260506025917 70 0.0 2.0 0.00 0.00 0.00 54 1013.0
20260506025417 70 0.0 1.0 0.00 0.00 0.00 54 1013.0
20260506024917 70 0.0 2.0 0.00 0.00 0.00 54 1012.9
20260506024417 70 0.0 1.0 0.00 0.00 0.00 53 1012.8
20260506023917 71 225 1.0 2.0 0.00 0.00 0.00 53 1012.9
20260506023417 71 225 1.0 4.0 0.00 0.00 0.00 53 1012.8
20260506022917 71 0.0 1.0 0.00 0.00 0.00 53 1012.7
20260506022417 71 0.0 1.0 0.00 0.00 0.00 52 1012.8
20260506021917 71 270 1.0 2.0 0.00 0.00 0.00 52 1012.9
20260506021417 71 225 2.0 4.0 0.00 0.00 0.00 52 1013.0
20260506020917 71 203 2.0 3.0 0.00 0.00 0.00 52 1012.8
20260506020417 71 0.0 0.0 0.00 0.00 0.00 53 1012.8
20260506015918 71 113 1.0 1.0 0.00 0.00 0.00 52 1012.7
20260506015417 71 270 1.0 4.0 0.00 0.00 0.00 52 1012.6
20260506014917 71 0.0 0.0 0.00 0.00 0.00 51 1012.5
20260506014417 71 0.0 1.0 0.00 0.00 0.00 51 1012.5
20260506013917 71 338 1.0 3.0 0.00 0.00 0.00 51 1012.3
20260506013417 71 270 2.0 4.0 0.00 0.00 0.00 50 1012.2
20260506012917 71 225 1.0 4.0 0.00 0.00 0.00 50 1012.1
20260506012417 72 315 1.0 5.0 0.00 0.00 0.00 50 1012.1
20260506011917 72 0.0 2.0 0.00 0.00 0.00 50 1012.0
20260506011417 72 270 2.0 3.0 0.00 0.00 0.00 49 1011.9
20260506010917 72 248 1.0 2.0 0.00 0.00 0.00 49 1011.8
20260506010417 72 293 1.0 2.0 0.00 0.00 0.00 49 1011.8
20260506005917 72 0.0 2.0 0.00 0.00 0.00 48 1011.9
20260506005417 72 248 1.0 2.0 0.00 0.00 0.00 48 1011.9
20260506004917 72 248 1.0 2.0 0.00 0.00 0.00 48 1012.1
20260506004415 72 225 2.0 4.0 0.00 0.00 0.00 48 1012.1
20260506003917 73 293 2.0 4.0 0.00 0.00 0.00 48 1012.2
20260506003417 73 270 2.0 3.0 0.00 0.00 0.00 48 1012.3
20260506002917 73 248 1.0 2.0 0.00 0.00 0.00 48 1012.2
20260506002417 73 180 3.0 6.0 0.00 0.00 0.00 48 1012.3
20260506001917 73 225 3.0 4.0 0.00 0.00 0.00 48 1012.3
20260506001417 73 248 2.0 4.0 0.00 0.00 0.00 49 1012.3
20260506000917 73 248 4.0 6.0 0.00 0.00 0.00 49 1012.3
20260506000417 73 225 1.0 3.0 0.00 0.00 0.00 51 1012.3
20260505235917 74 203 1.0 1.0 0.00 0.00 0.00 51 1012.2
20260505235417 74 203 1.0 3.0 0.00 0.00 0.00 52 1012.2
20260505234917 74 248 1.0 2.0 0.00 0.00 0.00 51 1012.1
20260505234417 74 270 2.0 5.0 0.00 0.00 0.00 51 1012.0
20260505233917 75 315 3.0 6.0 0.00 0.00 0.00 51 1011.9
20260505233417 75 248 2.0 5.0 0.00 0.00 0.00 51 1012.0
20260505232917 75 225 2.0 5.0 0.00 0.00 0.00 52 1011.9
20260505232417 75 225 2.0 2.0 0.00 0.00 0.00 52 1011.9
20260505231917 75 0.0 1.0 0.00 0.00 0.00 52 1011.8
20260505231417 75 293 3.0 6.0 0.00 0.00 0.00 51 1011.9
20260505230917 75 225 2.0 5.0 0.00 0.00 0.00 53 1011.7
20260505230417 76 248 2.0 3.0 0.00 0.00 0.00 52 1012.0
20260505225917 76 203 2.0 4.0 0.00 0.00 0.00 51 1012.0
20260505225417 77 248 3.0 8.0 0.00 0.00 0.00 50 1011.9
20260505224917 77 270 2.0 4.0 0.00 0.00 0.00 51 1012.0
20260505224417 77 248 2.0 3.0 0.00 0.00 0.00 52 1012.0
20260505223917 76 248 1.0 3.0 0.00 0.00 0.00 51 1012.0
20260505223417 75 203 1.0 1.0 0.00 0.00 0.00 53 1012.0
20260505222917 75 203 2.0 6.0 0.00 0.00 0.00 53 1012.1
20260505222417 76 180 1.0 4.0 0.00 0.00 0.00 51 1012.2
20260505221917 76 203 1.0 2.0 0.00 0.00 0.00 52 1012.3
20260505221417 76 225 1.0 2.0 0.00 0.00 0.00 51 1012.2
20260505220917 76 225 1.0 2.0 0.00 0.00 0.00 52 1012.3
20260505220417 76 203 1.0 3.0 0.00 0.00 0.00 51 1012.3
20260505215917 76 225 3.0 4.0 0.00 0.00 0.00 50 1012.3
20260505215417 77 248 2.0 5.0 0.00 0.00 0.00 49 1012.4
20260505214917 77 270 2.0 4.0 0.00 0.00 0.00 49 1012.3
20260505214417 77 203 2.0 5.0 0.00 0.00 0.00 49 1012.3
20260505213917 77 225 1.0 3.0 0.00 0.00 0.00 48 1012.5
20260505213417 77 248 4.0 7.0 0.00 0.00 0.00 47 1012.7
20260505212917 77 0.0 1.0 0.00 0.00 0.00 47 1012.7
20260505212417 78 158 2.0 5.0 0.00 0.00 0.00 47 1012.7
20260505211917 78 203 1.0 4.0 0.00 0.00 0.00 45 1012.8